Year,Month,Day,Hour,Minute,Value (Times are PST for temperature in C)
2018,04,02,00,00,3.20
2018,04,02,00,01,3.10
2018,04,02,00,02,3.10
2018,04,02,00,03,3.10
2018,04,02,00,04,3.10
2018,04,02,00,05,3.10
2018,04,02,00,06,3.00
2018,04,02,00,07,3.00
2018,04,02,00,08,3.00
2018,04,02,00,09,3.00
2018,04,02,00,10,3.00
2018,04,02,00,11,3.00
2018,04,02,00,12,3.00
2018,04,02,00,13,3.00
2018,04,02,00,14,3.10
2018,04,02,00,15,3.10
2018,04,02,00,16,3.20
2018,04,02,00,17,3.20
2018,04,02,00,18,3.20
2018,04,02,00,19,3.30
2018,04,02,00,20,3.30
2018,04,02,00,21,3.30
2018,04,02,00,22,3.40
2018,04,02,00,23,3.50
2018,04,02,00,24,3.50
2018,04,02,00,25,3.60
2018,04,02,00,26,3.60
2018,04,02,00,27,3.60
2018,04,02,00,28,3.60
2018,04,02,00,29,3.60
2018,04,02,00,30,3.60
2018,04,02,00,31,3.60
2018,04,02,00,32,3.60
2018,04,02,00,33,3.70
2018,04,02,00,34,3.70
2018,04,02,00,35,3.70
2018,04,02,00,36,3.70
2018,04,02,00,37,3.80
2018,04,02,00,38,3.80
2018,04,02,00,39,3.80
2018,04,02,00,40,3.80
2018,04,02,00,41,3.80
2018,04,02,00,42,3.80
2018,04,02,00,43,3.80
2018,04,02,00,44,3.70
2018,04,02,00,45,3.70
2018,04,02,00,46,3.70
2018,04,02,00,47,3.70
2018,04,02,00,48,3.70
2018,04,02,00,49,3.70
2018,04,02,00,50,3.80
2018,04,02,00,51,3.80
2018,04,02,00,52,3.80
2018,04,02,00,53,3.80
2018,04,02,00,54,3.80
2018,04,02,00,55,3.80
2018,04,02,00,56,3.80
2018,04,02,00,57,3.80
2018,04,02,00,58,3.80
2018,04,02,00,59,3.90
2018,04,02,01,00,3.90
2018,04,02,01,01,4.00
2018,04,02,01,02,4.00
2018,04,02,01,03,4.00
2018,04,02,01,04,4.10
2018,04,02,01,05,4.10
2018,04,02,01,06,4.20
2018,04,02,01,07,4.20
2018,04,02,01,08,4.20
2018,04,02,01,09,4.30
2018,04,02,01,10,4.30
2018,04,02,01,11,4.30
2018,04,02,01,12,4.30
2018,04,02,01,13,4.30
2018,04,02,01,14,4.30
2018,04,02,01,15,4.30
2018,04,02,01,16,4.30
2018,04,02,01,17,4.30
2018,04,02,01,18,4.30
2018,04,02,01,19,4.30
2018,04,02,01,20,4.30
2018,04,02,01,21,4.30
2018,04,02,01,22,4.30
2018,04,02,01,23,4.30
2018,04,02,01,24,4.30
2018,04,02,01,25,4.30
2018,04,02,01,26,4.30
2018,04,02,01,27,4.40
2018,04,02,01,28,4.40
2018,04,02,01,29,4.40
2018,04,02,01,30,4.40
2018,04,02,01,31,4.40
2018,04,02,01,32,4.40
2018,04,02,01,33,4.40
2018,04,02,01,34,4.40
2018,04,02,01,35,4.40
2018,04,02,01,36,4.40
2018,04,02,01,37,4.40
2018,04,02,01,38,4.40
2018,04,02,01,39,4.40
2018,04,02,01,40,4.40
2018,04,02,01,41,4.40
2018,04,02,01,42,4.40
2018,04,02,01,43,4.40
2018,04,02,01,44,4.30
2018,04,02,01,45,4.30
2018,04,02,01,46,4.40
2018,04,02,01,47,4.40
2018,04,02,01,48,4.40
2018,04,02,01,49,4.40
2018,04,02,01,50,4.40
2018,04,02,01,51,4.40
2018,04,02,01,52,4.40
2018,04,02,01,53,4.40
2018,04,02,01,54,4.40
2018,04,02,01,55,4.40
2018,04,02,01,56,4.40
2018,04,02,01,57,4.30
2018,04,02,01,58,4.30
2018,04,02,01,59,4.30
2018,04,02,02,00,4.30
2018,04,02,02,01,4.30
2018,04,02,02,02,4.30
2018,04,02,02,03,4.30
2018,04,02,02,04,4.30
2018,04,02,02,05,4.30
2018,04,02,02,06,4.30
2018,04,02,02,07,4.30
2018,04,02,02,08,4.30
2018,04,02,02,09,4.30
2018,04,02,02,10,4.30
2018,04,02,02,11,4.30
2018,04,02,02,12,4.30
2018,04,02,02,13,4.30
2018,04,02,02,14,4.30
2018,04,02,02,15,4.30
2018,04,02,02,16,4.30
2018,04,02,02,17,4.40
2018,04,02,02,18,4.40
2018,04,02,02,19,4.40
2018,04,02,02,20,4.40
2018,04,02,02,21,4.40
2018,04,02,02,22,4.40
2018,04,02,02,23,4.40
2018,04,02,02,24,4.30
2018,04,02,02,25,4.30
2018,04,02,02,26,4.30
2018,04,02,02,27,4.30
2018,04,02,02,28,4.30
2018,04,02,02,29,4.30
2018,04,02,02,30,4.30
2018,04,02,02,31,4.30
2018,04,02,02,32,4.30
2018,04,02,02,33,4.30
2018,04,02,02,34,4.20
2018,04,02,02,35,4.20
2018,04,02,02,36,4.20
2018,04,02,02,37,4.20
2018,04,02,02,38,4.20
2018,04,02,02,39,4.20
2018,04,02,02,40,4.20
2018,04,02,02,41,4.20
2018,04,02,02,42,4.20
2018,04,02,02,43,4.20
2018,04,02,02,44,4.20
2018,04,02,02,45,4.20
2018,04,02,02,46,4.20
2018,04,02,02,47,4.20
2018,04,02,02,48,4.20
2018,04,02,02,49,4.30
2018,04,02,02,50,4.30
2018,04,02,02,51,4.30
2018,04,02,02,52,4.30
2018,04,02,02,53,4.30
2018,04,02,02,54,4.30
2018,04,02,02,55,4.30
2018,04,02,02,56,4.20
2018,04,02,02,57,4.20
2018,04,02,02,58,4.20
2018,04,02,02,59,4.20
2018,04,02,03,00,4.20
2018,04,02,03,01,4.20
2018,04,02,03,02,4.20
2018,04,02,03,03,4.20
2018,04,02,03,04,4.20
2018,04,02,03,05,4.20
2018,04,02,03,06,4.20
2018,04,02,03,07,4.20
2018,04,02,03,08,4.20
2018,04,02,03,09,4.20
2018,04,02,03,10,4.20
2018,04,02,03,11,4.20
2018,04,02,03,12,4.20
2018,04,02,03,13,4.20
2018,04,02,03,14,4.10
2018,04,02,03,15,4.10
2018,04,02,03,16,4.10
2018,04,02,03,17,4.10
2018,04,02,03,18,4.10
2018,04,02,03,19,4.10
2018,04,02,03,20,4.10
2018,04,02,03,21,4.10
2018,04,02,03,22,4.10
2018,04,02,03,23,4.10
2018,04,02,03,24,4.10
2018,04,02,03,25,4.10
2018,04,02,03,26,4.10
2018,04,02,03,27,4.10
2018,04,02,03,28,4.10
2018,04,02,03,29,4.00
2018,04,02,03,30,4.00
2018,04,02,03,31,4.00
2018,04,02,03,32,4.00
2018,04,02,03,33,3.90
2018,04,02,03,34,3.90
2018,04,02,03,35,3.90
2018,04,02,03,36,3.90
2018,04,02,03,37,3.90
2018,04,02,03,38,3.90
2018,04,02,03,39,3.90
2018,04,02,03,40,3.90
2018,04,02,03,41,3.90
2018,04,02,03,42,3.90
2018,04,02,03,43,3.90
2018,04,02,03,44,3.90
2018,04,02,03,45,3.90
2018,04,02,03,46,3.90
2018,04,02,03,47,3.90
2018,04,02,03,48,3.90
2018,04,02,03,49,3.90
2018,04,02,03,50,3.90
2018,04,02,03,51,3.90
2018,04,02,03,52,3.80
2018,04,02,03,53,3.80
2018,04,02,03,54,3.80
2018,04,02,03,55,3.80
2018,04,02,03,56,3.80
2018,04,02,03,57,3.80
2018,04,02,03,58,3.80
2018,04,02,03,59,3.80
2018,04,02,04,00,3.80
2018,04,02,04,01,3.70
2018,04,02,04,02,3.70
2018,04,02,04,03,3.70
2018,04,02,04,04,3.70
2018,04,02,04,05,3.70
2018,04,02,04,06,3.70
2018,04,02,04,07,3.70
2018,04,02,04,08,3.70
2018,04,02,04,09,3.70
2018,04,02,04,10,3.70
2018,04,02,04,11,3.70
2018,04,02,04,12,3.70
2018,04,02,04,13,3.80
2018,04,02,04,14,3.70
2018,04,02,04,15,3.70
2018,04,02,04,16,3.80
2018,04,02,04,17,3.70
2018,04,02,04,18,3.70
2018,04,02,04,19,3.70
2018,04,02,04,20,3.70
2018,04,02,04,21,3.70
2018,04,02,04,22,3.70
2018,04,02,04,23,3.70
2018,04,02,04,24,3.70
2018,04,02,04,25,3.70
2018,04,02,04,26,3.70
2018,04,02,04,27,3.70
2018,04,02,04,28,3.70
2018,04,02,04,29,3.70
2018,04,02,04,30,3.70
2018,04,02,04,31,3.70
2018,04,02,04,32,3.70
2018,04,02,04,33,3.70
2018,04,02,04,34,3.70
2018,04,02,04,35,3.70
2018,04,02,04,36,3.70
2018,04,02,04,37,3.70
2018,04,02,04,38,3.70
2018,04,02,04,39,3.70
2018,04,02,04,40,3.70
2018,04,02,04,41,3.70
2018,04,02,04,42,3.70
2018,04,02,04,43,3.70
2018,04,02,04,44,3.70
2018,04,02,04,45,3.70
2018,04,02,04,46,3.70
2018,04,02,04,47,3.70
2018,04,02,04,48,3.60
2018,04,02,04,49,3.60
2018,04,02,04,50,3.60
2018,04,02,04,51,3.60
2018,04,02,04,52,3.50
2018,04,02,04,53,3.50
2018,04,02,04,54,3.40
2018,04,02,04,55,3.40
2018,04,02,04,56,3.40
2018,04,02,04,57,3.40
2018,04,02,04,58,3.40
2018,04,02,04,59,3.40
2018,04,02,05,00,3.40
2018,04,02,05,01,3.30
2018,04,02,05,02,3.30
2018,04,02,05,03,3.30
2018,04,02,05,04,3.30
2018,04,02,05,05,3.30
2018,04,02,05,06,3.30
2018,04,02,05,07,3.30
2018,04,02,05,08,3.40
2018,04,02,05,09,3.40
2018,04,02,05,10,3.40
2018,04,02,05,11,3.40
2018,04,02,05,12,3.50
2018,04,02,05,13,3.50
2018,04,02,05,14,3.50
2018,04,02,05,15,3.50
2018,04,02,05,16,3.50
2018,04,02,05,17,3.50
2018,04,02,05,18,3.60
2018,04,02,05,19,3.60
2018,04,02,05,20,3.60
2018,04,02,05,21,3.60
2018,04,02,05,22,3.60
2018,04,02,05,23,3.60
2018,04,02,05,24,3.60
2018,04,02,05,25,3.60
2018,04,02,05,26,3.60
2018,04,02,05,27,3.60
2018,04,02,05,28,3.60
2018,04,02,05,29,3.60
2018,04,02,05,30,3.60
2018,04,02,05,31,3.60
2018,04,02,05,32,3.60
2018,04,02,05,33,3.60
2018,04,02,05,34,3.60
2018,04,02,05,35,3.60
2018,04,02,05,36,3.60
2018,04,02,05,37,3.60
2018,04,02,05,38,3.60
2018,04,02,05,39,3.60
2018,04,02,05,40,3.60
2018,04,02,05,41,3.60
2018,04,02,05,42,3.60
2018,04,02,05,43,3.60
2018,04,02,05,44,3.60
2018,04,02,05,45,3.60
2018,04,02,05,46,3.60
2018,04,02,05,47,3.50
2018,04,02,05,48,3.50
2018,04,02,05,49,3.50
2018,04,02,05,50,3.50
2018,04,02,05,51,3.40
2018,04,02,05,52,3.40
2018,04,02,05,53,3.40
2018,04,02,05,54,3.40
2018,04,02,05,55,3.40
2018,04,02,05,56,3.40
2018,04,02,05,57,3.50
2018,04,02,05,58,3.50
2018,04,02,05,59,3.50
2018,04,02,06,00,3.50
2018,04,02,06,01,3.50
2018,04,02,06,02,3.50
2018,04,02,06,03,3.50
2018,04,02,06,04,3.60
2018,04,02,06,05,3.60
2018,04,02,06,06,3.60
2018,04,02,06,07,3.70
2018,04,02,06,08,3.70
2018,04,02,06,09,3.70
2018,04,02,06,10,3.70
2018,04,02,06,11,3.70
2018,04,02,06,12,3.70
2018,04,02,06,13,3.70
2018,04,02,06,14,3.70
2018,04,02,06,15,3.70
2018,04,02,06,16,3.60
2018,04,02,06,17,3.60
2018,04,02,06,18,3.60
2018,04,02,06,19,3.60
2018,04,02,06,20,3.50
2018,04,02,06,21,3.50
2018,04,02,06,22,3.50
2018,04,02,06,23,3.50
2018,04,02,06,24,3.50
2018,04,02,06,25,3.50
2018,04,02,06,26,3.50
2018,04,02,06,27,3.50
2018,04,02,06,28,3.50
2018,04,02,06,29,3.50
2018,04,02,06,30,3.50
2018,04,02,06,31,3.50
2018,04,02,06,32,3.50
2018,04,02,06,33,3.50
2018,04,02,06,34,3.60
2018,04,02,06,35,3.60
2018,04,02,06,36,3.60
2018,04,02,06,37,3.50
2018,04,02,06,38,3.50
2018,04,02,06,39,3.50
2018,04,02,06,40,3.50
2018,04,02,06,41,3.50
2018,04,02,06,42,3.50
2018,04,02,06,43,3.40
2018,04,02,06,44,3.40
2018,04,02,06,45,3.40
2018,04,02,06,46,3.40
2018,04,02,06,47,3.40
2018,04,02,06,48,3.40
2018,04,02,06,49,3.40
2018,04,02,06,50,3.40
2018,04,02,06,51,3.40
2018,04,02,06,52,3.40
2018,04,02,06,53,3.40
2018,04,02,06,54,3.40
2018,04,02,06,55,3.40
2018,04,02,06,56,3.50
2018,04,02,06,57,3.50
2018,04,02,06,58,3.50
2018,04,02,06,59,3.40
2018,04,02,07,00,3.40
2018,04,02,07,01,3.40
2018,04,02,07,02,3.40
2018,04,02,07,03,3.40
2018,04,02,07,04,3.40
2018,04,02,07,05,3.50
2018,04,02,07,06,3.50
2018,04,02,07,07,3.50
2018,04,02,07,08,3.50
2018,04,02,07,09,3.50
2018,04,02,07,10,3.40
2018,04,02,07,11,3.40
2018,04,02,07,12,3.40
2018,04,02,07,13,3.40
2018,04,02,07,14,3.40
2018,04,02,07,15,3.40
2018,04,02,07,16,3.30
2018,04,02,07,17,3.30
2018,04,02,07,18,3.30
2018,04,02,07,19,3.30
2018,04,02,07,20,3.30
2018,04,02,07,21,3.30
2018,04,02,07,22,3.30
2018,04,02,07,23,3.30
2018,04,02,07,24,3.30
2018,04,02,07,25,3.30
2018,04,02,07,26,3.30
2018,04,02,07,27,3.40
2018,04,02,07,28,3.40
2018,04,02,07,29,3.40
2018,04,02,07,30,3.40
2018,04,02,07,31,3.40
2018,04,02,07,32,3.40
2018,04,02,07,33,3.40
2018,04,02,07,34,3.40
2018,04,02,07,35,3.40
2018,04,02,07,36,3.50
2018,04,02,07,37,3.50
2018,04,02,07,38,3.50
2018,04,02,07,39,3.50
2018,04,02,07,40,3.50
2018,04,02,07,41,3.50
2018,04,02,07,42,3.50
2018,04,02,07,43,3.50
2018,04,02,07,44,3.50
2018,04,02,07,45,3.60
2018,04,02,07,46,3.60
2018,04,02,07,47,3.60
2018,04,02,07,48,3.60
2018,04,02,07,49,3.60
2018,04,02,07,50,3.70
2018,04,02,07,51,3.70
2018,04,02,07,52,3.70
2018,04,02,07,53,3.70
2018,04,02,07,54,3.70
2018,04,02,07,55,3.70
2018,04,02,07,56,3.70
2018,04,02,07,57,3.70
2018,04,02,07,58,3.70
2018,04,02,07,59,3.80
2018,04,02,08,00,3.80
2018,04,02,08,01,3.80
2018,04,02,08,02,3.80
2018,04,02,08,03,3.80
2018,04,02,08,04,3.90
2018,04,02,08,05,3.90
2018,04,02,08,06,3.90
2018,04,02,08,07,3.90
2018,04,02,08,08,3.90
2018,04,02,08,09,4.00
2018,04,02,08,10,4.00
2018,04,02,08,11,4.10
2018,04,02,08,12,4.10
2018,04,02,08,13,4.10
2018,04,02,08,14,4.20
2018,04,02,08,15,4.20
2018,04,02,08,16,4.20
2018,04,02,08,17,4.30
2018,04,02,08,18,4.30
2018,04,02,08,19,4.40
2018,04,02,08,20,4.40
2018,04,02,08,21,4.40
2018,04,02,08,22,4.50
2018,04,02,08,23,4.50
2018,04,02,08,24,4.60
2018,04,02,08,25,4.60
2018,04,02,08,26,4.60
2018,04,02,08,27,4.60
2018,04,02,08,28,4.70
2018,04,02,08,29,4.70
2018,04,02,08,30,4.70
2018,04,02,08,31,4.70
2018,04,02,08,32,4.70
2018,04,02,08,33,4.80
2018,04,02,08,34,4.80
2018,04,02,08,35,4.80
2018,04,02,08,36,4.80
2018,04,02,08,37,4.90
2018,04,02,08,38,4.90
2018,04,02,08,39,4.90
2018,04,02,08,40,4.90
2018,04,02,08,41,5.00
2018,04,02,08,42,5.00
2018,04,02,08,43,5.00
2018,04,02,08,44,5.10
2018,04,02,08,45,5.10
2018,04,02,08,46,5.10
2018,04,02,08,47,5.10
2018,04,02,08,48,5.20
2018,04,02,08,49,5.20
2018,04,02,08,50,5.30
2018,04,02,08,51,5.30
2018,04,02,08,52,5.30
2018,04,02,08,53,5.30
2018,04,02,08,54,5.30
2018,04,02,08,55,5.30
2018,04,02,08,56,5.40
2018,04,02,08,57,5.40
2018,04,02,08,58,5.40
2018,04,02,08,59,5.40
2018,04,02,09,00,5.40
2018,04,02,09,01,5.40
2018,04,02,09,02,5.40
2018,04,02,09,03,5.40
2018,04,02,09,04,5.40
2018,04,02,09,05,5.40
2018,04,02,09,06,5.40
2018,04,02,09,07,5.40
2018,04,02,09,08,5.40
2018,04,02,09,09,5.50
2018,04,02,09,10,5.50
2018,04,02,09,11,5.50
2018,04,02,09,12,5.60
2018,04,02,09,13,5.60
2018,04,02,09,14,5.60
2018,04,02,09,15,5.60
2018,04,02,09,16,5.70
2018,04,02,09,17,5.80
2018,04,02,09,18,5.80
2018,04,02,09,19,5.80
2018,04,02,09,20,5.90
2018,04,02,09,21,5.90
2018,04,02,09,22,5.90
2018,04,02,09,23,5.90
2018,04,02,09,24,5.90
2018,04,02,09,25,5.90
2018,04,02,09,26,5.90
2018,04,02,09,27,5.90
2018,04,02,09,28,5.90
2018,04,02,09,29,6.00
2018,04,02,09,30,6.00
2018,04,02,09,31,6.10
2018,04,02,09,32,6.10
2018,04,02,09,33,6.10
2018,04,02,09,34,6.10
2018,04,02,09,35,6.10
2018,04,02,09,36,6.10
2018,04,02,09,37,6.10
2018,04,02,09,38,6.10
2018,04,02,09,39,6.10
2018,04,02,09,40,6.20
2018,04,02,09,41,6.20
2018,04,02,09,42,6.20
2018,04,02,09,43,6.20
2018,04,02,09,44,6.30
2018,04,02,09,45,6.30
2018,04,02,09,46,6.30
2018,04,02,09,47,6.30
2018,04,02,09,48,6.30
2018,04,02,09,49,6.30
2018,04,02,09,50,6.30
2018,04,02,09,51,6.30
2018,04,02,09,52,6.30
2018,04,02,09,53,6.30
2018,04,02,09,54,6.30
2018,04,02,09,55,6.30
2018,04,02,09,56,6.30
2018,04,02,09,57,6.30
2018,04,02,09,58,6.30
2018,04,02,09,59,6.30
2018,04,02,10,00,6.30
2018,04,02,10,01,6.30
2018,04,02,10,02,6.30
2018,04,02,10,03,6.40
2018,04,02,10,04,6.40
2018,04,02,10,05,6.50
2018,04,02,10,06,6.50
2018,04,02,10,07,6.60
2018,04,02,10,08,6.60
2018,04,02,10,09,6.60
2018,04,02,10,10,6.70
2018,04,02,10,11,6.70
2018,04,02,10,12,6.70
2018,04,02,10,13,6.70
2018,04,02,10,14,6.70
2018,04,02,10,15,6.70
2018,04,02,10,16,6.70
2018,04,02,10,17,6.70
2018,04,02,10,18,6.70
2018,04,02,10,19,6.60
2018,04,02,10,20,6.60
2018,04,02,10,21,6.60
2018,04,02,10,22,6.60
2018,04,02,10,23,6.60
2018,04,02,10,24,6.60
2018,04,02,10,25,6.70
2018,04,02,10,26,6.60
2018,04,02,10,27,6.60
2018,04,02,10,28,6.60
2018,04,02,10,29,6.70
2018,04,02,10,30,6.60
2018,04,02,10,31,6.60
2018,04,02,10,32,6.60
2018,04,02,10,33,6.70
2018,04,02,10,34,6.70
2018,04,02,10,35,6.70
2018,04,02,10,36,6.70
2018,04,02,10,37,6.70
2018,04,02,10,38,6.70
2018,04,02,10,39,6.70
2018,04,02,10,40,6.70
2018,04,02,10,41,6.70
2018,04,02,10,42,6.70
2018,04,02,10,43,6.70
2018,04,02,10,44,6.70
2018,04,02,10,45,6.70
2018,04,02,10,46,6.70
2018,04,02,10,47,6.70
2018,04,02,10,48,6.70
2018,04,02,10,49,6.70
2018,04,02,10,50,6.70
2018,04,02,10,51,6.70
2018,04,02,10,52,6.80
2018,04,02,10,53,6.80
2018,04,02,10,54,6.80
2018,04,02,10,55,6.80
2018,04,02,10,56,6.90
2018,04,02,10,57,6.90
2018,04,02,10,58,6.90
2018,04,02,10,59,6.80
2018,04,02,11,00,6.80
2018,04,02,11,01,6.80
2018,04,02,11,02,6.80
2018,04,02,11,03,6.80
2018,04,02,11,04,6.80
2018,04,02,11,05,6.80
2018,04,02,11,06,6.80
2018,04,02,11,07,6.80
2018,04,02,11,08,6.80
2018,04,02,11,09,6.80
2018,04,02,11,10,6.80
2018,04,02,11,11,6.80
2018,04,02,11,12,6.90
2018,04,02,11,13,6.90
2018,04,02,11,14,7.00
2018,04,02,11,15,7.10
2018,04,02,11,16,7.20
2018,04,02,11,17,7.30
2018,04,02,11,18,7.30
2018,04,02,11,19,7.30
2018,04,02,11,20,7.30
2018,04,02,11,21,7.30
2018,04,02,11,22,7.20
2018,04,02,11,23,7.20
2018,04,02,11,24,7.20
2018,04,02,11,25,7.20
2018,04,02,11,26,7.20
2018,04,02,11,27,7.30
2018,04,02,11,28,7.30
2018,04,02,11,29,7.30
2018,04,02,11,30,7.30
2018,04,02,11,31,7.30
2018,04,02,11,32,7.30
2018,04,02,11,33,7.40
2018,04,02,11,34,7.40
2018,04,02,11,35,7.50
2018,04,02,11,36,7.50
2018,04,02,11,37,7.50
2018,04,02,11,38,7.40
2018,04,02,11,39,7.50
2018,04,02,11,40,7.50
2018,04,02,11,41,7.60
2018,04,02,11,42,7.60
2018,04,02,11,43,7.60
2018,04,02,11,44,7.60
2018,04,02,11,45,7.60
2018,04,02,11,46,7.60
2018,04,02,11,47,7.50
2018,04,02,11,48,7.40
2018,04,02,11,49,7.40
2018,04,02,11,50,7.30
2018,04,02,11,51,7.30
2018,04,02,11,52,7.30
2018,04,02,11,53,7.30
2018,04,02,11,54,7.40
2018,04,02,11,55,7.40
2018,04,02,11,56,7.50
2018,04,02,11,57,7.60
2018,04,02,11,58,7.70
2018,04,02,11,59,7.80
2018,04,02,12,00,7.80
2018,04,02,12,01,7.90
2018,04,02,12,02,7.90
2018,04,02,12,03,7.90
2018,04,02,12,04,7.80
2018,04,02,12,05,7.70
2018,04,02,12,06,7.60
2018,04,02,12,07,7.60
2018,04,02,12,08,7.60
2018,04,02,12,09,7.50
2018,04,02,12,10,7.50
2018,04,02,12,11,7.50
2018,04,02,12,12,7.60
2018,04,02,12,13,7.60
2018,04,02,12,14,7.70
2018,04,02,12,15,7.80
2018,04,02,12,16,7.80
2018,04,02,12,17,7.70
2018,04,02,12,18,7.80
2018,04,02,12,19,7.80
2018,04,02,12,20,7.80
2018,04,02,12,21,7.90
2018,04,02,12,22,7.90
2018,04,02,12,23,7.90
2018,04,02,12,24,7.80
2018,04,02,12,25,7.80
2018,04,02,12,26,7.80
2018,04,02,12,27,7.70
2018,04,02,12,28,7.70
2018,04,02,12,29,7.70
2018,04,02,12,30,7.80
2018,04,02,12,31,7.80
2018,04,02,12,32,7.90
2018,04,02,12,33,7.90
2018,04,02,12,34,8.00
2018,04,02,12,35,8.00
2018,04,02,12,36,8.00
2018,04,02,12,37,8.00
2018,04,02,12,38,8.00
2018,04,02,12,39,8.00
2018,04,02,12,40,8.00
2018,04,02,12,41,8.00
2018,04,02,12,42,8.10
2018,04,02,12,43,8.10
2018,04,02,12,44,8.10
2018,04,02,12,45,8.20
2018,04,02,12,46,8.30
2018,04,02,12,47,8.30
2018,04,02,12,48,8.30
2018,04,02,12,49,8.30
2018,04,02,12,50,8.30
2018,04,02,12,51,8.30
2018,04,02,12,52,8.30
2018,04,02,12,53,8.30
2018,04,02,12,54,8.20
2018,04,02,12,55,8.20
2018,04,02,12,56,8.20
2018,04,02,12,57,8.10
2018,04,02,12,58,8.20
2018,04,02,12,59,8.20
2018,04,02,13,00,8.20
2018,04,02,13,01,8.30
2018,04,02,13,02,8.30
2018,04,02,13,03,8.40
2018,04,02,13,04,8.50
2018,04,02,13,05,8.50
2018,04,02,13,06,8.50
2018,04,02,13,07,8.50
2018,04,02,13,08,8.60
2018,04,02,13,09,8.60
2018,04,02,13,10,8.60
2018,04,02,13,11,8.60
2018,04,02,13,12,8.60
2018,04,02,13,13,8.60
2018,04,02,13,14,8.70
2018,04,02,13,15,8.70
2018,04,02,13,16,8.70
2018,04,02,13,17,8.70
2018,04,02,13,18,8.70
2018,04,02,13,19,8.60
2018,04,02,13,20,8.60
2018,04,02,13,21,8.50
2018,04,02,13,22,8.50
2018,04,02,13,23,8.50
2018,04,02,13,24,8.50
2018,04,02,13,25,8.50
2018,04,02,13,26,8.50
2018,04,02,13,27,8.40
2018,04,02,13,28,8.40
2018,04,02,13,29,8.40
2018,04,02,13,30,8.40
2018,04,02,13,31,8.40
2018,04,02,13,32,8.40
2018,04,02,13,33,8.30
2018,04,02,13,34,8.30
2018,04,02,13,35,8.30
2018,04,02,13,36,8.30
2018,04,02,13,37,8.30
2018,04,02,13,38,8.30
2018,04,02,13,39,8.30
2018,04,02,13,40,8.30
2018,04,02,13,41,8.30
2018,04,02,13,42,8.30
2018,04,02,13,43,8.30
2018,04,02,13,44,8.20
2018,04,02,13,45,8.20
2018,04,02,13,46,8.20
2018,04,02,13,47,8.20
2018,04,02,13,48,8.30
2018,04,02,13,49,8.30
2018,04,02,13,50,8.30
2018,04,02,13,51,8.30
2018,04,02,13,52,8.30
2018,04,02,13,53,8.30
2018,04,02,13,54,8.20
2018,04,02,13,55,8.20
2018,04,02,13,56,8.20
2018,04,02,13,57,8.20
2018,04,02,13,58,8.30
2018,04,02,13,59,8.30
2018,04,02,14,00,8.30
2018,04,02,14,01,8.30
2018,04,02,14,02,8.40
2018,04,02,14,03,8.50
2018,04,02,14,04,8.50
2018,04,02,14,05,8.60
2018,04,02,14,06,8.60
2018,04,02,14,07,8.70
2018,04,02,14,08,8.70
2018,04,02,14,09,8.80
2018,04,02,14,10,8.80
2018,04,02,14,11,8.70
2018,04,02,14,12,8.70
2018,04,02,14,13,8.70
2018,04,02,14,14,8.80
2018,04,02,14,15,8.80
2018,04,02,14,16,8.90
2018,04,02,14,17,8.90
2018,04,02,14,18,8.90
2018,04,02,14,19,8.90
2018,04,02,14,20,8.90
2018,04,02,14,21,8.90
2018,04,02,14,22,8.90
2018,04,02,14,23,8.90
2018,04,02,14,24,8.90
2018,04,02,14,25,8.80
2018,04,02,14,26,8.80
2018,04,02,14,27,8.80
2018,04,02,14,28,8.80
2018,04,02,14,29,8.80
2018,04,02,14,30,8.80
2018,04,02,14,31,8.70
2018,04,02,14,32,8.70
2018,04,02,14,33,8.70
2018,04,02,14,34,8.80
2018,04,02,14,35,8.80
2018,04,02,14,36,8.90
2018,04,02,14,37,8.80
2018,04,02,14,38,8.90
2018,04,02,14,39,8.90
2018,04,02,14,40,8.90
2018,04,02,14,41,9.00
2018,04,02,14,42,8.90
2018,04,02,14,43,9.00
2018,04,02,14,44,9.00
2018,04,02,14,45,9.00
2018,04,02,14,46,9.00
2018,04,02,14,47,9.10
2018,04,02,14,48,9.10
2018,04,02,14,49,9.00
2018,04,02,14,50,9.00
2018,04,02,14,51,8.90
2018,04,02,14,52,8.90
2018,04,02,14,53,9.00
2018,04,02,14,54,9.00
2018,04,02,14,55,9.10
2018,04,02,14,56,9.10
2018,04,02,14,57,9.10
2018,04,02,14,58,9.10
2018,04,02,14,59,9.20
2018,04,02,15,00,9.20
2018,04,02,15,01,9.30
2018,04,02,15,02,9.30
2018,04,02,15,03,9.40
2018,04,02,15,04,9.40
2018,04,02,15,05,9.40
2018,04,02,15,06,9.30
2018,04,02,15,07,9.20
2018,04,02,15,08,9.00
2018,04,02,15,09,8.90
2018,04,02,15,10,8.70
2018,04,02,15,11,8.60
2018,04,02,15,12,8.50
2018,04,02,15,13,8.30
2018,04,02,15,14,8.30
2018,04,02,15,15,8.20
2018,04,02,15,16,8.20
2018,04,02,15,17,8.20
2018,04,02,15,18,8.20
2018,04,02,15,19,8.30
2018,04,02,15,20,8.20
2018,04,02,15,21,8.20
2018,04,02,15,22,8.20
2018,04,02,15,23,8.20
2018,04,02,15,24,8.20
2018,04,02,15,25,8.10
2018,04,02,15,26,8.10
2018,04,02,15,27,8.00
2018,04,02,15,28,8.00
2018,04,02,15,29,7.90
2018,04,02,15,30,7.90
2018,04,02,15,31,8.00
2018,04,02,15,32,8.00
2018,04,02,15,33,8.00
2018,04,02,15,34,7.90
2018,04,02,15,35,7.90
2018,04,02,15,36,7.90
2018,04,02,15,37,7.80
2018,04,02,15,38,7.80
2018,04,02,15,39,7.80
2018,04,02,15,40,7.80
2018,04,02,15,41,7.80
2018,04,02,15,42,7.80
2018,04,02,15,43,7.80
2018,04,02,15,44,7.80
2018,04,02,15,45,7.90
2018,04,02,15,46,7.90
2018,04,02,15,47,8.00
2018,04,02,15,48,8.00
2018,04,02,15,49,8.00
2018,04,02,15,50,8.00
2018,04,02,15,51,8.10
2018,04,02,15,52,8.10
2018,04,02,15,53,8.10
2018,04,02,15,54,8.10
2018,04,02,15,55,8.10
2018,04,02,15,56,8.20
2018,04,02,15,57,8.30
2018,04,02,15,58,8.30
2018,04,02,15,59,8.40
2018,04,02,16,00,8.40
2018,04,02,16,01,8.50
2018,04,02,16,02,8.60
2018,04,02,16,03,8.70
2018,04,02,16,04,8.80
2018,04,02,16,05,8.80
2018,04,02,16,06,8.80
2018,04,02,16,07,8.70
2018,04,02,16,08,8.70
2018,04,02,16,09,8.60
2018,04,02,16,10,8.60
2018,04,02,16,11,8.70
2018,04,02,16,12,8.60
2018,04,02,16,13,8.60
2018,04,02,16,14,8.60
2018,04,02,16,15,8.60
2018,04,02,16,16,8.70
2018,04,02,16,17,8.60
2018,04,02,16,18,8.60
2018,04,02,16,19,8.60
2018,04,02,16,20,8.60
2018,04,02,16,21,8.60
2018,04,02,16,22,8.60
2018,04,02,16,23,8.60
2018,04,02,16,24,8.60
2018,04,02,16,25,8.60
2018,04,02,16,26,8.60
2018,04,02,16,27,8.60
2018,04,02,16,28,8.70
2018,04,02,16,29,8.70
2018,04,02,16,30,8.70
2018,04,02,16,31,8.70
2018,04,02,16,32,8.80
2018,04,02,16,33,8.80
2018,04,02,16,34,8.80
2018,04,02,16,35,8.80
2018,04,02,16,36,8.80
2018,04,02,16,37,8.80
2018,04,02,16,38,8.80
2018,04,02,16,39,8.80
2018,04,02,16,40,8.80
2018,04,02,16,41,8.80
2018,04,02,16,42,8.80
2018,04,02,16,43,8.80
2018,04,02,16,44,8.80
2018,04,02,16,45,8.80
2018,04,02,16,46,8.80
2018,04,02,16,47,8.80
2018,04,02,16,48,8.80
2018,04,02,16,49,8.80
2018,04,02,16,50,8.80
2018,04,02,16,51,8.80
2018,04,02,16,52,8.80
2018,04,02,16,53,8.80
2018,04,02,16,54,8.80
2018,04,02,16,55,8.70
2018,04,02,16,56,8.70
2018,04,02,16,57,8.70
2018,04,02,16,58,8.70
2018,04,02,16,59,8.70
2018,04,02,17,00,8.70
2018,04,02,17,01,8.70
2018,04,02,17,02,8.70
2018,04,02,17,03,8.70
2018,04,02,17,04,8.70
2018,04,02,17,05,8.70
2018,04,02,17,06,8.70
2018,04,02,17,07,8.70
2018,04,02,17,08,8.70
2018,04,02,17,09,8.70
2018,04,02,17,10,8.70
2018,04,02,17,11,8.60
2018,04,02,17,12,8.50
2018,04,02,17,13,8.50
2018,04,02,17,14,8.40
2018,04,02,17,15,8.40
2018,04,02,17,16,8.40
2018,04,02,17,17,8.30
2018,04,02,17,18,8.30
2018,04,02,17,19,8.30
2018,04,02,17,20,8.30
2018,04,02,17,21,8.30
2018,04,02,17,22,8.40
2018,04,02,17,23,8.40
2018,04,02,17,24,8.40
2018,04,02,17,25,8.40
2018,04,02,17,26,8.40
2018,04,02,17,27,8.40
2018,04,02,17,28,8.40
2018,04,02,17,29,8.40
2018,04,02,17,30,8.40
2018,04,02,17,31,8.40
2018,04,02,17,32,8.40
2018,04,02,17,33,8.40
2018,04,02,17,34,8.40
2018,04,02,17,35,8.40
2018,04,02,17,36,8.30
2018,04,02,17,37,8.30
2018,04,02,17,38,8.30
2018,04,02,17,39,8.30
2018,04,02,17,40,8.30
2018,04,02,17,41,8.30
2018,04,02,17,42,8.30
2018,04,02,17,43,8.30
2018,04,02,17,44,8.30
2018,04,02,17,45,8.30
2018,04,02,17,46,8.30
2018,04,02,17,47,8.30
2018,04,02,17,48,8.30
2018,04,02,17,49,8.30
2018,04,02,17,50,8.30
2018,04,02,17,51,8.30
2018,04,02,17,52,8.30
2018,04,02,17,53,8.30
2018,04,02,17,54,8.30
2018,04,02,17,55,8.30
2018,04,02,17,56,8.20
2018,04,02,17,57,8.20
2018,04,02,17,58,8.20
2018,04,02,17,59,8.20
2018,04,02,18,00,8.20
2018,04,02,18,01,8.20
2018,04,02,18,02,8.20
2018,04,02,18,03,8.20
2018,04,02,18,04,8.20
2018,04,02,18,05,8.20
2018,04,02,18,06,8.20